When you browse on this site, cookies collect data to enhance your experience and personalize the content and advertising you see.
Visit our Privacy Policy to learn more. By continuing to use the site, you agree to this use of cookies and data.
  • In Czech Republic
  • List of Countries
  • For 7 days
  • Water Temperature
  • Satellite Maps
  • Weather Map
  • Weather Widgets
  • user-avatar
    Login

    Hourly Weather Poddubnoe

    Today, 18 November, Sunday

    Time Temperature Precipitation Wind Pressure Humidity
    00:00 -1°C° 0.2 mm 4 mps 745 mmHg 93%
    01:00 0°C° 0.2 mm 4 mps 745 mmHg 94%
    02:00 +1°C° 0 mm 3 mps 744 mmHg 94%
    03:00 +1°C° 0.2 mm 3 mps 743 mmHg 95%
    04:00 +1°C° 0.2 mm 3 mps 743 mmHg 95%
    05:00 +1°C° 0.2 mm 3 mps 742 mmHg 95%
    06:00 +1°C° 0.2 mm 3 mps 742 mmHg 96%
    07:00 +1°C° 0.2 mm 3 mps 742 mmHg 96%
    08:00 +1°C° 0 mm 3 mps 742 mmHg 96%
    09:00 +1°C° 0.1 mm 3 mps 743 mmHg 95%
    10:00 +1°C° 0.1 mm 3 mps 743 mmHg 95%
    11:00 +2°C° 0.1 mm 2 mps 743 mmHg 94%
    12:00 +2°C° 0.1 mm 2 mps 744 mmHg 95%
    13:00 +2°C° 0.1 mm 2 mps 744 mmHg 95%
    14:00 +2°C° 0 mm 2 mps 744 mmHg 96%
    15:00 +2°C° 0 mm 2 mps 745 mmHg 96%
    16:00 +1°C° 0 mm 2 mps 745 mmHg 96%
    17:00 +1°C° 0 mm 2 mps 746 mmHg 97%
    18:00 +1°C° 0 mm 2 mps 746 mmHg 96%
    19:00 +1°C° 0 mm 2 mps 747 mmHg 96%
    20:00 +1°C° 0 mm 2 mps 747 mmHg 96%
    21:00 +1°C° 0 mm 2 mps 748 mmHg 96%
    22:00 +1°C° 0 mm 2 mps 748 mmHg 96%
    23:00 +1°C° 0 mm 2 mps 748 mmHg 96%

    Tomorrow, 19 November, Monday

    Time Temperature Precipitation Wind Pressure Humidity
    00:00 +1°C° 0 mm 2 mps 749 mmHg 96%
    01:00 +1°C° 0 mm 2 mps 749 mmHg 96%
    02:00 +1°C° 0 mm 2 mps 749 mmHg 96%
    03:00 +1°C° 0 mm 2 mps 750 mmHg 95%
    04:00 +1°C° 0 mm 2 mps 750 mmHg 95%
    05:00 +1°C° 0 mm 2 mps 751 mmHg 94%
    06:00 -1°C° 0 mm 3 mps 751 mmHg 94%
    07:00 -1°C° 0 mm 3 mps 751 mmHg 93%
    08:00 -1°C° 0 mm 3 mps 752 mmHg 92%
    09:00 -1°C° 0 mm 3 mps 752 mmHg 91%
    10:00 -1°C° 0 mm 3 mps 752 mmHg 90%
    11:00 -1°C° 0 mm 3 mps 753 mmHg 88%
    12:00 -1°C° 0 mm 3 mps 753 mmHg 88%
    13:00 -1°C° 0 mm 3 mps 753 mmHg 87%
    14:00 -2°C° 0 mm 2 mps 753 mmHg 87%
    15:00 -2°C° 0 mm 2 mps 753 mmHg 87%
    16:00 -2°C° 0 mm 2 mps 753 mmHg 87%
    17:00 -3°C° 0 mm 2 mps 753 mmHg 87%
    18:00 -3°C° 0 mm 2 mps 753 mmHg 88%
    19:00 -3°C° 0 mm 2 mps 753 mmHg 88%
    20:00 -3°C° 0 mm 2 mps 753 mmHg 89%
    21:00 -3°C° 0 mm 2 mps 753 mmHg 89%
    22:00 -4°C° 0 mm 2 mps 753 mmHg 90%
    23:00 -2°C° 0 mm 1 mps 753 mmHg 90%

    Day after tomorrow, 20 November, Tuesday

    Time Temperature Precipitation Wind Pressure Humidity
    00:00 -2°C° 0 mm 1 mps 753 mmHg 91%
    01:00 -2°C° 0 mm 1 mps 753 mmHg 92%
    02:00 -3°C° 0 mm 1 mps 753 mmHg 93%
    03:00 -3°C° 0 mm 1 mps 753 mmHg 93%
    04:00 -3°C° 0 mm 1 mps 752 mmHg 94%
    05:00 -4°C° 0 mm 1 mps 752 mmHg 94%
    06:00 -4°C° 0 mm 1 mps 752 mmHg 94%
    07:00 -5°C° 0 mm 0 mps 752 mmHg 93%
    08:00 -5°C° 0 mm 0 mps 752 mmHg 93%
    09:00 -4°C° 0 mm 0 mps 751 mmHg 89%
    10:00 -3°C° 0 mm 0 mps 751 mmHg 85%
    11:00 -1°C° 0 mm 1 mps 751 mmHg 81%
    12:00 -1°C° 0 mm 1 mps 751 mmHg 82%
    13:00 -1°C° 0 mm 1 mps 750 mmHg 82%
    14:00 -1°C° 0 mm 1 mps 750 mmHg 83%
    15:00 -4°C° 0 mm 2 mps 750 mmHg 86%
    16:00 -4°C° 0 mm 2 mps 749 mmHg 89%
    17:00 -5°C° 0 mm 2 mps 749 mmHg 92%
    18:00 -5°C° 0 mm 2 mps 749 mmHg 92%
    19:00 -5°C° 0 mm 2 mps 749 mmHg 92%
    20:00 -5°C° 0 mm 2 mps 748 mmHg 92%
    21:00 -5°C° 0 mm 2 mps 748 mmHg 92%
    22:00 -5°C° 0 mm 2 mps 748 mmHg 91%
    23:00 -5°C° 0 mm 2 mps 748 mmHg 90%

    21 November, Wednesday

    Time Temperature Precipitation Wind Pressure Humidity
    00:00 -5°C° 0 mm 2 mps 748 mmHg 90%
    01:00 -4°C° 0 mm 2 mps 748 mmHg 89%
    02:00 -4°C° 0 mm 2 mps 748 mmHg 88%
    03:00 -4°C° 0 mm 2 mps 748 mmHg 89%
    04:00 -4°C° 0 mm 2 mps 748 mmHg 90%
    05:00 -3°C° 0 mm 2 mps 748 mmHg 91%
    06:00 -3°C° 0 mm 2 mps 748 mmHg 91%
    07:00 -3°C° 0 mm 2 mps 748 mmHg 91%
    08:00 -3°C° 0 mm 2 mps 748 mmHg 91%
    09:00 -2°C° 0 mm 2 mps 749 mmHg 88%
    10:00 -2°C° 0 mm 2 mps 749 mmHg 86%
    11:00 -2°C° 0 mm 3 mps 749 mmHg 84%
    12:00 -2°C° 0 mm 2 mps 749 mmHg 83%
    13:00 -2°C° 0 mm 2 mps 749 mmHg 83%
    14:00 -2°C° 0 mm 2 mps 749 mmHg 82%
    15:00 -3°C° 0 mm 2 mps 749 mmHg 86%
    16:00 -3°C° 0 mm 2 mps 749 mmHg 90%
    17:00 -4°C° 0 mm 2 mps 749 mmHg 93%
    18:00 -4°C° 0 mm 2 mps 749 mmHg 94%
    19:00 -5°C° 0 mm 2 mps 749 mmHg 94%
    20:00 -5°C° 0 mm 2 mps 749 mmHg 95%
    21:00 -5°C° 0 mm 2 mps 749 mmHg 94%
    22:00 -5°C° 0 mm 2 mps 748 mmHg 94%
    23:00 -6°C° 0 mm 3 mps 748 mmHg 94%

    22 November, Thursday

    Time Temperature Precipitation Wind Pressure Humidity
    00:00 -5°C° 0 mm 3 mps 748 mmHg 93%
    01:00 -5°C° 0 mm 3 mps 748 mmHg 91%
    02:00 -5°C° 0 mm 4 mps 748 mmHg 90%
    03:00 -5°C° 0 mm 4 mps 747 mmHg 89%
    04:00 -5°C° 0 mm 4 mps 747 mmHg 88%
    05:00 -7°C° 0 mm 4 mps 746 mmHg 87%
    06:00 -7°C° 0 mm 4 mps 746 mmHg 88%
    07:00 -7°C° 0 mm 4 mps 746 mmHg 88%
    08:00 -7°C° 0 mm 4 mps 746 mmHg 89%
    09:00 -5°C° 0 mm 4 mps 746 mmHg 87%
    10:00 -5°C° 0 mm 5 mps 746 mmHg 86%
    11:00 -4°C° 0 mm 5 mps 745 mmHg 84%
    12:00 -4°C° 0 mm 5 mps 745 mmHg 84%
    13:00 -4°C° 0 mm 5 mps 745 mmHg 84%
    14:00 -3°C° 0 mm 4 mps 745 mmHg 84%
    15:00 -3°C° 0 mm 4 mps 745 mmHg 85%
    16:00 -2°C° 0 mm 4 mps 746 mmHg 87%
    17:00 -2°C° 0 mm 4 mps 746 mmHg 88%
    18:00 -2°C° 0 mm 4 mps 746 mmHg 88%
    19:00 -1°C° 0 mm 3 mps 746 mmHg 89%
    20:00 -1°C° 0 mm 3 mps 747 mmHg 90%
    21:00 -2°C° 0 mm 3 mps 747 mmHg 91%
    22:00 -2°C° 0 mm 2 mps 747 mmHg 92%
    23:00 -2°C° 0 mm 2 mps 748 mmHg 93%

    23 November, Friday

    Time Temperature Precipitation Wind Pressure Humidity
    00:00 -2°C° 0 mm 2 mps 748 mmHg 94%
    01:00 -3°C° 0 mm 2 mps 748 mmHg 94%
    02:00 -3°C° 0 mm 2 mps 748 mmHg 95%
    03:00 -3°C° 0 mm 2 mps 748 mmHg 95%
    04:00 -3°C° 0 mm 2 mps 749 mmHg 94%
    05:00 -3°C° 0 mm 2 mps 749 mmHg 94%
    06:00 -2°C° 0 mm 2 mps 749 mmHg 93%
    07:00 -2°C° 0 mm 2 mps 749 mmHg 92%
    08:00 -2°C° 0 mm 2 mps 749 mmHg 91%
    09:00 -2°C° 0 mm 3 mps 748 mmHg 90%
    10:00 -1°C° 0 mm 3 mps 748 mmHg 89%
    11:00 -1°C° 0 mm 3 mps 748 mmHg 88%
    12:00 -1°C° 0 mm 3 mps 748 mmHg 87%
    13:00 -2°C° 0 mm 4 mps 747 mmHg 86%
    14:00 -2°C° 0 mm 4 mps 747 mmHg 86%
    15:00 -2°C° 0 mm 4 mps 746 mmHg 86%
    16:00 -2°C° 0 mm 5 mps 745 mmHg 87%
    17:00 -4°C° 0 mm 5 mps 745 mmHg 88%
    18:00 -4°C° 0 mm 5 mps 744 mmHg 87%
    19:00 -4°C° 0 mm 5 mps 744 mmHg 86%
    20:00 -4°C° 0 mm 6 mps 743 mmHg 85%
    21:00 -4°C° 0 mm 6 mps 743 mmHg 84%
    22:00 -4°C° 0 mm 5 mps 743 mmHg 84%
    23:00 -4°C° 0 mm 5 mps 742 mmHg 83%
    Show more